SBONWEB Weather Reports


Display with metric or nautical units.
time (UTC)temp
F
wind
direction
speed
MPH
gust
MPH
rain 1hr
in
rain 24hr
in
rain mn
in
humidity
%
barometer
mb
20260831115404 83 106 3.0 9.0 0.00 0.00 0.00 54 1015.9
20260831114717 83 109 3.0 9.0 0.00 0.00 0.00 54 1015.9
20260831113604 83 116 4.0 7.0 0.00 0.00 0.00 56 1016.0
20260831112703 83 110 5.0 9.0 0.00 0.00 0.00 57 1016.0
20260831111803 83 109 3.0 9.0 0.00 0.00 0.00 55 1016.1
20260831110904 84 155 2.0 6.0 0.00 0.00 0.00 55 1016.1
20260831110003 83 189 2.0 4.0 0.00 0.00 0.00 57 1016.1
20260831105403 82 177 2.0 7.0 0.00 0.00 0.00 58 1016.1
20260831104717 82 201 2.0 7.0 0.00 0.00 0.00 56 1016.2
20260831103816 83 148 2.0 7.0 0.00 0.00 0.00 56 1016.1
20260831102703 82 169 3.0 6.0 0.00 0.00 0.00 55 1016.2
20260831101803 82 149 2.0 8.0 0.00 0.00 0.00 57 1016.2
20260831100903 82 190 3.0 5.0 0.00 0.00 0.00 55 1016.2
20260831100218 81 209 3.0 7.0 0.00 0.00 0.00 55 1016.2
20260831095403 82 187 1.0 5.0 0.00 0.00 0.00 54 1016.3
20260831094503 81 188 2.0 4.0 0.00 0.00 0.00 57 1016.2
20260831093603 81 174 2.0 5.0 0.00 0.00 0.00 57 1016.5
20260831092703 81 151 3.0 5.0 0.00 0.00 0.00 60 1016.5
20260831091803 80 171 3.0 6.0 0.00 0.00 0.00 61 1016.4
20260831090903 80 126 2.0 6.0 0.00 0.00 0.00 61 1016.4
20260831090004 80 113 2.0 5.0 0.00 0.00 0.00 63 1016.5
20260831085403 80 106 2.0 4.0 0.00 0.00 0.00 66 1016.4
20260831084716 80 120 2.0 4.0 0.00 0.00 0.00 63 1016.3
20260831083604 80 93 1.0 6.0 0.00 0.00 0.00 63 1016.4
20260831082704 80 142 1.0 2.0 0.00 0.00 0.00 63 1016.4
20260831081803 79 186 1.0 3.0 0.00 0.00 0.00 62 1016.2
20260831081118 79 172 1.0 3.0 0.00 0.00 0.00 62 1016.1
20260831080003 79 42 1.0 4.0 0.00 0.00 0.00 63 1016.3
20260831075403 79 358 1.0 3.0 0.00 0.00 0.00 63 1016.2
20260831074503 78 95 1.0 2.0 0.00 0.00 0.00 64 1016.2
20260831073603 77 36 3.0 4.0 0.00 0.00 0.00 65 1016.2
20260831072703 76 14 4.0 7.0 0.00 0.00 0.00 67 1016.0
20260831071803 76 16 3.0 7.0 0.00 0.00 0.00 67 1016.1
20260831070903 75 12 4.0 5.0 0.00 0.00 0.00 68 1016.0
20260831070003 75 356 3.0 8.0 0.00 0.00 0.00 68 1016.1
20260831065616 75 333 3.0 7.0 0.00 0.00 0.00 68 1016.1
20260831064504 75 11 3.0 5.0 0.00 0.00 0.00 68 1016.0
20260831063604 75 25 1.0 7.0 0.00 0.00 0.00 67 1016.0
20260831062703 75 21 2.0 4.0 0.00 0.00 0.00 69 1016.1
20260831061803 74 343 2.0 7.0 0.00 0.00 0.00 69 1016.1
20260831060903 73 293 2.0 8.0 0.00 0.00 0.00 70 1016.0
20260831060216 73 277 4.0 5.0 0.00 0.00 0.00 72 1016.0
20260831055403 72 315 5.0 10.0 0.00 0.00 0.00 72 1015.9
20260831054504 72 330 4.0 9.0 0.00 0.00 0.00 73 1016.0
20260831053816 71 299 5.0 9.0 0.00 0.00 0.00 73 1016.0
20260831052703 71 316 6.0 11.0 0.00 0.00 0.00 74 1015.8
20260831051804 70 325 6.0 11.0 0.00 0.00 0.00 77 1015.8
20260831050903 70 1 5.0 9.0 0.00 0.00 0.00 78 1015.7
20260831050003 69 333 3.0 8.0 0.00 0.00 0.00 80 1015.7
20260831045403 69 295 2.0 8.0 0.00 0.00 0.00 82 1015.7
20260831044503 69 308 3.0 7.0 0.00 0.00 0.00 80 1015.7
20260831043604 69 15 1.0 7.0 0.00 0.00 0.00 78 1015.6
20260831042703 70 234 2.0 3.0 0.00 0.00 0.00 76 1015.6
20260831041803 70 258 3.0 8.0 0.00 0.00 0.00 76 1015.8
20260831041118 70 229 2.0 7.0 0.00 0.00 0.00 76 1015.8
20260831040004 70 301 2.0 4.0 0.00 0.00 0.00 75 1015.7
20260831035403 71 289 2.0 4.0 0.00 0.00 0.00 74 1015.8
20260831034503 71 268 3.0 6.0 0.00 0.00 0.00 74 1015.7
20260831033604 71 290 3.0 6.0 0.00 0.00 0.00 73 1015.8
20260831032704 71 337 3.0 7.0 0.00 0.00 0.00 73 1015.9
20260831031803 72 5 3.0 6.0 0.00 0.00 0.00 73 1015.9
20260831031118 72 6 4.0 7.0 0.00 0.00 0.00 72 1016.0
20260831030003 72 351 5.0 11.0 0.00 0.00 0.00 72 1015.9
20260831025403 72 345 6.0 9.0 0.00 0.00 0.00 72 1016.1
20260831024718 72 2 6.0 10.0 0.00 0.00 0.00 72 1016.1
20260831023603 72 358 6.0 11.0 0.00 0.00 0.00 72 1016.0
20260831022917 72 343 5.0 11.0 0.00 0.00 0.00 73 1015.9
20260831021804 72 354 4.0 8.0 0.00 0.00 0.00 74 1015.9
20260831020903 71 2 5.0 10.0 0.00 0.00 0.00 74 1016.0
20260831015403 72 355 5.0 10.0 0.00 0.00 0.00 74 1015.9
20260831014503 72 355 5.0 9.0 0.00 0.00 0.00 74 1016.1
20260831013603 72 359 4.0 9.0 0.00 0.00 0.00 74 1016.1
20260831012703 72 351 3.0 7.0 0.00 0.00 0.00 74 1016.1
20260831011803 72 289 3.0 6.0 0.00 0.00 0.00 75 1016.1
20260831010903 72 312 2.0 5.0 0.00 0.00 0.00 75 1016.1
20260831010003 72 318 2.0 7.0 0.00 0.00 0.00 74 1016.0
20260831005403 72 335 2.0 7.0 0.00 0.00 0.00 74 1016.1
20260831004503 72 294 2.0 4.0 0.00 0.00 0.00 74 1016.1
20260831003603 72 330 1.0 4.0 0.00 0.00 0.00 73 1016.1
20260831002703 73 255 1.0 3.0 0.00 0.00 0.00 73 1016.1
20260831001803 73 271 0.0 3.0 0.00 0.00 0.00 72 1016.2
20260831001117 73 325 0.0 3.0 0.00 0.00 0.00 72 1016.2
20260831000003 74 264 2.0 4.0 0.00 0.00 0.00 71 1016.3
20260830235403 74 283 2.0 6.0 0.00 0.00 0.00 71 1016.3
20260830234503 73 286 1.0 5.0 0.00 0.00 0.00 71 1016.4
20260830233818 73 273 2.0 3.0 0.00 0.00 0.00 71 1016.4
20260830232917 74 318 2.0 4.0 0.00 0.00 0.00 71 1016.4
20260830231803 73 340 3.0 6.0 0.00 0.00 0.00 72 1016.4
20260830230903 74 359 3.0 8.0 0.00 0.00 0.00 70 1016.4
20260830230003 74 3 3.0 4.0 0.00 0.00 0.00 70 1016.3
20260830225404 74 347 3.0 4.0 0.00 0.00 0.00 70 1016.4
20260830224503 74 8 2.0 4.0 0.00 0.00 0.00 69 1016.4
20260830223603 74 353 2.0 5.0 0.00 0.00 0.00 69 1016.4
20260830222917 74 359 1.0 5.0 0.00 0.00 0.00 69 1016.4
20260830221803 74 339 2.0 3.0 0.00 0.00 0.00 69 1016.5
20260830220904 74 293 2.0 4.0 0.00 0.00 0.00 68 1016.5
20260830220003 74 317 3.0 5.0 0.00 0.00 0.00 68 1016.4
20260830215403 74 333 3.0 5.0 0.00 0.00 0.00 68 1016.3
20260830214503 74 342 3.0 4.0 0.00 0.00 0.00 68 1016.2
20260830213817 74 1 3.0 5.0 0.00 0.00 0.00 68 1016.2
20260830212704 74 4 3.0 5.0 0.00 0.00 0.00 68 1016.1
20260830211803 74 12 3.0 4.0 0.00 0.00 0.00 68 1016.1
20260830211117 74 13 2.0 5.0 0.00 0.00 0.00 69 1016.0
20260830210217 73 10 2.0 3.0 0.00 0.00 0.00 71 1016.1
20260830205404 72 358 0.0 4.0 0.00 0.00 0.00 72 1016.0
20260830204503 72 0 0.0 0.0 0.00 0.00 0.00 72 1016.1
20260830203817 72 0 0.0 0.0 0.00 0.00 0.00 74 1016.0
20260830202703 72 0 0.0 0.0 0.00 0.00 0.00 74 1016.1
20260830201803 71 0 0.0 0.0 0.00 0.00 0.00 74 1016.0
20260830200904 72 0 0.0 0.0 0.00 0.00 0.00 73 1016.0
20260830200003 72 224 0.0 2.0 0.00 0.00 0.00 72 1015.9
20260830195404 72 221 0.0 1.0 0.00 0.00 0.00 72 1015.9
20260830194503 72 0 0.0 0.0 0.00 0.00 0.00 72 1015.9
20260830193603 72 221 1.0 2.0 0.00 0.00 0.00 74 1015.8
20260830192703 72 221 0.0 2.0 0.00 0.00 0.00 74 1015.8
20260830191803 72 0 0.0 0.0 0.00 0.00 0.00 74 1015.7
20260830190903 73 207 1.0 1.0 0.00 0.00 0.00 73 1015.8
20260830190003 73 212 1.0 2.0 0.00 0.00 0.00 72 1015.7
20260830185404 73 216 1.0 2.0 0.00 0.00 0.00 72 1015.8
20260830184503 74 216 1.0 2.0 0.00 0.00 0.00 71 1015.6
20260830183603 74 217 1.0 2.0 0.00 0.00 0.00 70 1015.6
20260830182703 74 229 0.0 2.0 0.00 0.00 0.00 69 1015.7
20260830181803 75 238 1.0 2.0 0.00 0.00 0.00 69 1015.5
20260830180903 76 223 1.0 2.0 0.00 0.00 0.00 67 1015.5
20260830180003 77 206 1.0 2.0 0.00 0.00 0.00 65 1015.5
20260830175403 77 198 1.0 2.0 0.00 0.00 0.00 66 1015.4
20260830174503 79 198 1.0 2.0 0.00 0.00 0.00 64 1015.4
20260830173603 81 198 0.0 2.0 0.00 0.00 0.00 63 1015.3
20260830172917 82 197 0.0 1.0 0.00 0.00 0.00 59 1015.2
20260830171804 83 197 1.0 3.0 0.00 0.00 0.00 56 1015.1
20260830170903 83 195 1.0 3.0 0.00 0.00 0.00 55 1015.1
20260830170003 83 195 1.0 3.0 0.00 0.00 0.00 52 1015.2
20260830165403 84 201 0.0 3.0 0.00 0.00 0.00 51 1015.2
20260830164503 83 166 1.0 2.0 0.00 0.00 0.00 54 1015.1
20260830163604 84 183 1.0 4.0 0.00 0.00 0.00 51 1015.1
20260830162703 84 183 1.0 2.0 0.00 0.00 0.00 50 1015.1
20260830161803 84 153 1.0 4.0 0.00 0.00 0.00 50 1015.2
20260830160904 84 133 2.0 2.0 0.00 0.00 0.00 49 1015.2
20260830160003 84 122 2.0 6.0 0.00 0.00 0.00 48 1015.3
20260830155403 84 116 2.0 5.0 0.00 0.00 0.00 48 1015.3
20260830154503 85 191 1.0 4.0 0.00 0.00 0.00 49 1015.3
20260830153604 85 135 1.0 4.0 0.00 0.00 0.00 48 1015.4
20260830152916 85 190 1.0 4.0 0.00 0.00 0.00 48 1015.4
20260830151803 85 114 2.0 4.0 0.00 0.00 0.00 49 1015.5
20260830150903 84 113 3.0 7.0 0.00 0.00 0.00 49 1015.5
20260830150003 84 160 2.0 5.0 0.00 0.00 0.00 48 1015.5
20260830145618 85 166 2.0 5.0 0.00 0.00 0.00 48 1015.6
20260830144503 85 178 3.0 5.0 0.00 0.00 0.00 48 1015.6
20260830143604 84 185 2.0 6.0 0.00 0.00 0.00 47 1015.5
20260830142918 85 159 2.0 7.0 0.00 0.00 0.00 47 1015.5
20260830141803 84 191 3.0 7.0 0.00 0.00 0.00 48 1015.6
20260830140903 84 174 3.0 6.0 0.00 0.00 0.00 49 1015.7
20260830140004 83 198 3.0 8.0 0.00 0.00 0.00 49 1015.7
20260830135403 83 196 3.0 8.0 0.00 0.00 0.00 48 1015.9
20260830134503 83 121 3.0 6.0 0.00 0.00 0.00 50 1015.9
20260830133604 82 106 4.0 7.0 0.00 0.00 0.00 48 1015.9
20260830132703 83 123 3.0 7.0 0.00 0.00 0.00 52 1015.9
20260830131803 83 116 4.0 8.0 0.00 0.00 0.00 52 1016.0
20260830130903 82 105 5.0 10.0 0.00 0.00 0.00 52 1016.1
20260830130004 82 113 4.0 9.0 0.00 0.00 0.00 53 1016.3
20260830125403 81 107 4.0 10.0 0.00 0.00 0.00 52 1016.3
20260830124503 82 111 3.0 8.0 0.00 0.00 0.00 51 1016.4
20260830123603 82 125 3.0 5.0 0.00 0.00 0.00 50 1016.3
20260830122703 82 124 3.0 9.0 0.00 0.00 0.00 53 1016.5
20260830121803 82 164 3.0 8.0 0.00 0.00 0.00 54 1016.5
20260830120903 81 110 2.0 9.0 0.00 0.00 0.00 57 1016.6
20260830120004 81 113 3.0 6.0 0.00 0.00 0.00 58 1016.6